Theta_e
299 298 298 298 300 301 301 302 302 302 303 303 304 304 305 306 306 305 306 309 308 310 311 312 312 313 313
297 297 298 299 300 300 300 299 301 303 303 302 303 304 304 305 306 305 308 307 305 306 307 308 309 310 310
296 297 298 299 301 300 300 299 300 301 300 301 302 304 304 304 304 305 305 303 303 304 304 306 308 309 308
296 298 299 299 300 300 300 299 299 299 298 299 301 302 303 304 304 303 304 302 302 303 303 304 304 305 306
297 298 299 299 300 299 298 297 298 297 297 299 300 300 300 301 301 302 303 303 303 303 303 303 302 302 303
297 297 298 299 299 298 297 296 296 296 297 296 296 295 295 297 299 300 301 300 301 302 302 301 300 300 300
296 296 296 297 298 297 296 295 295 295 294 294 294 295 295 297 298 297 298 299 300 301 301 300 298 298 298
296 295 295 296 296 296 296 295 294 293 293 293 294 295 295 294 295 295 295 298 299 300 299 298 298 297 297
295 295 294 294 294 295 295 294 293 293 293 293 294 293 292 292 292 294 296 296 295 294 294 294 294 294 295
295 295 295 294 294 294 294 293 293 292 291 292 292 291 291 292 295 295 295 294 293 293 292 292 292 292 292
293 293 293 293 294 295 294 293 293 292 291 291 289 289 289 289 289 290 291 291 291 291 290 291 291 291 291
293 293 293 293 292 293 293 292 292 292 291 291 290 289 288 288 288 289 289 290 289 288 288 288 289 289 291
293 293 292 292 293 292 292 292 291 290 290 289 289 288 287 286 286 287 287 288 288 287 287 287 287 287 288
293 293 292 292 292 291 291 291 289 288 288 288 288 287 286 286 286 286 286 287 287 287 286 286 286 287 288
292 292 292 292 290 290 290 290 289 289 288 287 287 286 285 286 286 286 287 287 286 286 286 286 286 286 287
291 290 290 290 290 290 290 289 289 289 288 288 286 286 286 285 285 285 285 286 286 286 286 286 286 286 286
289 288 289 289 290 289 290 289 289 288 288 287 286 286 286 286 286 286 285 286 286 286 285 285 285 286 286
Wind_Speed
17 17 19 19 18 15 14 16 15 14 15 14 15 15 15 15 14 16 15 15 15 12 11 11 12 13 14
17 17 17 16 17 20 17 15 15 13 15 16 16 15 15 15 15 14 13 16 17 17 16 16 16 15 13
17 16 17 17 14 13 15 17 16 15 16 16 14 13 14 16 16 15 15 14 16 18 18 16 17 18 17
18 16 15 14 13 14 14 12 15 16 19 16 15 16 16 14 16 17 18 18 17 18 16 13 14 15 17
16 16 15 12 11 10 10 14 15 18 16 13 12 12 13 14 15 13 12 14 15 17 17 16 15 14 17
15 15 17 16 13 12 10 10 4 4 7 14 16 20 18 13 15 18 18 17 16 18 18 17 16 15 16
21 20 20 18 16 14 12 13 15 17 15 17 10 17 17 12 11 14 17 17 16 15 15 18 17 17 18
27 29 26 25 22 18 16 16 17 19 14 8 11 14 14 17 12 14 12 10 10 13 14 14 16 17 19
26 27 30 29 23 19 16 13 11 12 12 15 10 10 16 18 13 11 9 7 8 9 11 13 15 17 20
19 20 21 22 22 26 22 18 14 5 10 8 5 4 5 4 6 8 9 9 11 12 12 14 15 18 19
23 22 22 21 21 23 27 26 20 20 8 10 5 3 5 6 10 11 12 15 11 13 13 12 13 15 20
22 22 21 21 24 24 26 29 29 30 23 20 10 14 9 6 7 3 7 11 14 16 12 16 14 15 16
22 23 24 26 28 27 28 28 30 30 27 29 26 22 19 16 9 11 12 7 13 18 12 12 15 15 18
23 24 23 22 24 27 25 24 25 25 32 35 32 30 23 24 20 22 19 11 6 11 16 18 16 15 16
22 22 22 21 23 24 25 22 21 20 21 22 25 25 26 23 19 22 20 19 20 19 17 16 15 15 15
22 21 22 23 24 22 24 25 23 22 22 18 19 16 16 21 26 25 22 20 19 17 16 14 16 15 15
23 25 24 24 24 23 22 24 24 23 21 21 20 16 8 9 12 22 24 18 16 15 15 15 15 17 16
Wind_Direction
286 293 292 294 295 295 300 302 300 293 293 292 290 280 277 277 277 283 282 276 283 288 285 280 282 285 287
282 287 285 286 287 299 298 302 296 303 298 302 291 273 273 275 273 279 269 275 282 279 277 275 277 276 285
283 285 287 287 283 287 290 299 299 297 296 295 294 288 276 273 273 263 261 278 278 280 278 274 270 272 276
277 279 278 282 286 281 280 284 298 295 296 295 292 283 283 274 268 270 275 277 273 272 271 276 279 275 273
271 279 278 277 270 284 300 301 296 288 290 293 290 286 280 282 285 277 264 268 269 262 258 266 274 277 275
265 270 277 281 281 279 277 291 301 282 310 293 288 288 290 281 270 271 272 275 270 257 258 267 276 280 281
260 260 272 274 284 278 263 261 262 281 301 293 283 283 288 285 269 273 278 274 262 264 265 277 280 281 281
251 257 260 269 274 274 271 274 277 279 268 274 285 276 277 278 279 277 279 276 252 254 269 269 271 277 280
265 266 264 259 264 265 257 257 269 269 249 245 278 299 288 288 270 262 262 265 273 278 279 277 282 287 289
281 279 278 279 268 246 247 244 244 294 253 228 268 293 302 269 249 261 271 285 295 294 293 293 288 290 292
282 279 274 273 268 250 238 235 240 240 234 213 215 232 239 287 284 266 261 267 280 284 291 286 283 285 291
270 266 263 256 263 264 250 243 241 245 247 235 240 226 225 266 265 251 279 269 276 287 284 290 287 288 281
264 263 264 265 266 264 258 254 248 246 243 241 236 240 236 245 254 261 298 280 277 282 271 285 292 290 292
262 267 271 268 259 254 244 241 236 245 251 244 245 245 240 241 245 260 263 260 265 271 283 288 284 282 278
263 266 266 268 272 268 255 242 233 239 239 235 238 240 238 242 244 248 256 260 265 275 275 279 279 276 278
267 270 268 266 265 266 252 241 240 240 236 222 205 210 226 244 241 248 249 251 255 263 264 266 280 282 281
268 268 264 268 263 259 253 240 239 240 233 220 204 204 219 236 256 233 233 240 248 246 251 258 272 281 285